Location: Rancho Penasquitos
(32.9595°N, 117.1153°W)
Time: 02:06:20
(UTC+00:00)

H-2A R/B - Pass Details

Date: 29 June 2022
Orbit: 491 x 536 km, 97.3° (Epoch: 01 April)

Event Time Altitude Azimuth Distance (km) Brightness Sun altitude
Rises 12:08:07 0° 19° (NNE) 2,600 7.2 -7.1°
Reaches altitude 10° 12:10:16 10° 25° (NNE) 1,718 6.4 -6.7°
Maximum altitude 12:13:49 44° 99° (E) 707 3.8 -6.1°
Drops below altitude 10° 12:17:24 10° 173° (S) 1,728 5.1 -5.4°
Sets 12:19:33 0° 179° (S) 2,616 6.0 -5.1°
